[[{"header":{"parameterUnit":"m.s-1","parameterCategory":1,"la1":30.2991,"la2":30.254,"lo1":-89.0895,"lo2":-89.0444,"dy":0.0017,"dx":0.0017,"nx":28,"ny":28,"refTime":"2023-04-20T21:00:00:Z","depth":0,"parameterNumber":2,"parameterNumberName":"U-component_of_WINDS"},"data":[0,0,0,0,0,0,0,0,0,0,0,0,0,0,0,0,0,0,0,0,0,0,0,0,0,0,0,0,0,0,0,0,0,0,0,0,0,0,0,0,0,0,0,0,0,0,0,0,0,0,0,0,0,0,0,0,0,0,-3.4492,-3.4493,0,-3.4582,-3.4583,-3.4584,-3.4559,-3.4557,-3.4555,-3.4554,-3.4645,-3.4649,-3.4653,0,0,0,0,0,0,0,0,0,0,0,0,0,-3.4298,-3.4302,-3.4492,-3.4493,-3.4494,-3.4581,-3.4583,-3.4584,-3.4559,-3.4557,-3.4555,-3.4553,-3.4643,-3.4648,-3.4653,0,0,0,0,0,0,0,0,0,0,0,0,0,-3.4385,-3.4303,-3.4491,-3.4492,-3.4493,-3.4581,-3.4583,-3.4584,-3.456,-3.4557,-3.4554,-3.4552,-3.4642,-3.4648,-3.4654,-3.4746,0,0,-3.4673,-3.4675,0,0,0,0,0,0,0,0,-3.438,-3.4392,-3.4491,-3.4492,-3.4493,-3.4556,-3.4548,-3.4639,-3.456,-3.4534,-3.4554,-3.455,-3.4617,-3.4625,-3.4648,-3.4751,-3.4755,-3.4673,-3.4677,-3.468,-3.4681,0,0,0,0,0,0,0,-3.4374,-3.4388,-3.4527,-3.4492,-3.4494,-3.4488,-3.4497,-3.4565,-3.459,-3.4536,-3.4535,-3.4546,-3.4618,-3.4642,-3.465,-3.4756,-3.4673,-3.4679,-3.4682,-3.4685,-3.494,-3.4943,0,0,0,0,0,0,-3.4367,-3.4383,-3.4524,-3.453,-3.4429,-3.4494,-3.4504,-3.4539,-3.4589,-3.4594,-3.4548,-3.4544,-3.4633,-3.4643,-3.4653,-3.4765,-3.468,-3.4685,-3.4689,-3.4937,-3.494,-3.4944,0,0,0,0,0,0,-3.4363,-3.438,-3.4521,-3.4456,-3.4474,-3.45,-3.4539,-3.4542,-3.4567,-3.4598,-3.4602,-3.4569,-3.4631,-3.4645,-3.4724,-3.4768,-3.4688,-3.4694,-3.4933,-3.4938,-3.4942,-3.4989,0,0,0,0,0,0,-3.4358,-3.4379,-3.4414,-3.4457,-3.4477,-3.4589,-3.4542,-3.4546,-3.4578,-3.4574,-3.4619,-3.4623,-3.463,-3.4715,-3.473,-3.4775,-3.4699,-3.4929,-3.4935,-3.4941,-3.4984,-3.4995,-3.5004,0,0,0,0,0,-3.4351,-3.4423,-3.4416,-3.4433,-3.4522,-3.4592,-3.4603,-3.461,-3.4581,-3.4617,-3.4637,-3.4622,-3.4761,-3.4723,-3.474,-3.4787,-3.4926,-3.4933,-3.494,-3.4979,-3.4992,-3.5004,0,0,0,0,0,0,-3.4383,-3.4429,-3.4421,-3.4509,-3.4547,-3.4588,-3.4633,-3.4624,-3.467,-3.4665,-3.4671,-3.4681,-3.4762,-3.4783,-3.474,-3.488,-3.4839,-3.485,-3.4863,-3.4876,-3.4886,-3.4879,-3.4704,0,0,0,0,0,-3.4401,-3.4455,-3.4491,-3.4566,-3.4585,-3.4606,-3.4637,-3.4639,-3.4678,-3.4694,-3.472,-3.4758,-3.4811,-3.4845,-3.4895,-3.4987,-3.4997,-3.5028,-3.5039,-3.5047,-3.5055,-3.5106,-3.5121,-3.4966,-3.4966,-3.4966,0,0,-3.4438,-3.4469,-3.4502,-3.4573,-3.4602,-3.4658,-3.4619,-3.4679,-3.472,-3.4703,-3.4779,-3.48,-3.4843,-3.4929,-3.4969,-3.4949,-3.5101,-3.5056,-3.5062,-3.5066,-3.5115,-3.5129,-3.5142,-3.4971,-3.497,-3.4969,0,0,-3.4532,-3.4562,-3.4627,-3.4658,-3.4703,-3.4717,-3.4733,-3.4775,-3.4789,-3.4866,-3.4854,-3.4903,-3.4993,-3.5025,-3.5052,-3.5162,-3.5149,-3.5178,-3.5231,-3.528,-3.5292,-3.5303,-3.5341,-3.5355,-3.5187,-3.5187,-3.5187,0,-3.4571,-3.4654,-3.4662,-3.4723,-3.4754,-3.4743,-3.4809,-3.4838,-3.4898,-3.492,-3.4898,-3.5011,-3.504,-3.5133,-3.516,-3.5183,-3.5201,-3.5172,-3.529,-3.5301,-3.5311,-3.5348,-3.5362,-3.519,-3.519,-3.5189,-3.5189,0,-3.47,-3.4758,-3.4806,-3.4864,-3.4901,-3.4965,-3.4982,-3.5019,-3.5019,-3.5035,-3.5114,-3.5148,-3.5205,-3.5227,-3.5227,-3.5322,-3.5308,-3.5288,-3.5247,-3.5329,-3.5363,-3.5378,-3.5194,-3.5193,-3.5192,-3.5192,0,0,-3.4816,-3.4879,-3.4896,-3.4923,-3.4973,-3.5018,-3.5081,-3.5138,-3.5169,-3.5211,-3.5264,-3.5342,-3.5324,-3.5356,-3.536,-3.5404,-3.5488,-3.5378,-3.5379,-3.5396,-3.5593,-3.5607,-3.5623,-3.5481,-3.5483,-3.5486,-3.559,0,-3.4914,-3.5026,-3.5035,-3.5135,-3.5189,-3.518,-3.5235,-3.5272,-3.529,-3.5338,-3.5357,-3.5412,-3.5384,-3.5404,-3.5447,-3.5468,-3.5527,-3.5461,-3.553,-3.5532,-3.5517,-3.5642,-3.5656,-3.5752,-3.5603,-3.5606,-3.5607,0,-3.5043,-3.5089,-3.5195,-3.5239,-3.5262,-3.5312,-3.5364,-3.5411,-3.5453,-3.5463,-3.55,-3.5498,-3.5564,-3.5522,-3.5613,-3.5568,-3.5597,-3.5612,-3.5616,-3.5621,-3.5573,-3.5649,-3.5783,-3.5797,-3.5629,-3.5627,-3.5625,0,-3.5115,-3.5205,-3.528,-3.5303,-3.5356,-3.5391,-3.5415,-3.5455,-3.5489,-3.5535,-3.5557,-3.5611,-3.564,-3.5682,-3.5695,-3.5663,-3.5785,-3.5744,-3.5795,-3.5794,-3.5819,-3.5817,-3.5958,-3.584,-3.584,-3.584,-3.5839,0,-3.5223,-3.5288,-3.5313,-3.5359,-3.5432,-3.5443,-3.5515,-3.5537,-3.5573,-3.5623,-3.5619,-3.5666,-3.5681,-3.5731,-3.5742,-3.5815,-3.5829,-3.5838,-3.584,-3.5838,-3.5837,-3.5856,-3.5849,-3.5844,-3.5843,-3.5842,-3.5841,0,-3.5316,-3.5335,-3.5416,-3.5461,-3.5473,-3.5525,-3.5563,-3.5608,-3.5625,-3.5689,-3.5705,-3.5732,-3.5791,-3.5809,-3.588,-3.5887,-3.5973,-3.597,-3.5959,-3.5958,-3.6007,-3.6002,-3.6165,-3.6187,-3.6055,-3.6057,-3.6058,0,-3.5382,-3.5432,-3.5482,-3.5516,-3.5541,-3.5596,-3.563,-3.5644,-3.568,-3.5733,-3.5771,-3.583,-3.5877,-3.5972,-3.5998,-3.6052,-3.6049,-3.6103,-3.6057,-3.6054,-3.6049,-3.6046,-3.6051,-3.6111,-3.6112,-3.6113,-3.6114,0,-3.5499,-3.5506,-3.5556,-3.5611,-3.5652,-3.5695,-3.5737,-3.5765,-3.5784,-3.5825,-3.5886,-3.5922,-3.5996,-3.6054,-3.6109,-3.6134,-3.6128,-3.6129,-3.6143,-3.614,-3.6132,-3.6137,-3.5981,-3.6124,-3.6123,-3.6123,-3.6122,-3.6122,-3.558,-3.5624,-3.5666,-3.5722,-3.5755,-3.5795,-3.5839,-3.5863,-3.5913,-3.5974,-3.5979,-3.6045,-3.6087,-3.6161,-3.6189,-3.6241,-3.6225,-3.6246,-3.6251,-3.6256,-3.626,-3.6125,-3.6251,-3.6251,-3.6251,-3.625,-3.625,0,-3.5695,-3.5722,-3.5774,-3.5833,-3.5877,-3.5869,-3.5915,-3.5952,-3.601,-3.605,-3.6097,-3.6167,-3.6224,-3.6256,-3.6313,-3.6348,-3.6347,-3.6363,-3.6359,-3.6365,-3.6271,-3.6252,-3.6363,-3.6363,-3.6363,-3.6363,-3.6363,-3.6363,-3.576,-3.5834,-3.5847,-3.5938,-3.5965,-3.6029,-3.6056,-3.6093,-3.6125,-3.6203,-3.6251,-3.6271,-3.6309,-3.6369,-3.6421,-3.6428,-3.6449,-3.6467,-3.6473,-3.6383,-3.6372,-3.6361,-3.6343,-3.6471,-3.6472,-3.6563,-3.6564,-3.6564]},{"header":{"parameterUnit":"m.s-1","parameterCategory":1,"la1":30.2991,"la2":30.254,"lo1":-89.0895,"lo2":-89.0444,"dy":0.0017,"dx":0.0017,"nx":28,"ny":28,"refTime":"2023-04-20T21:00:00:Z","depth":0,"parameterNumber":3,"parameterNumberName":"V-component_of_WINDS"},"data":[0,0,0,0,0,0,0,0,0,0,0,0,0,0,0,0,0,0,0,0,0,0,0,0,0,0,0,0,0,0,0,0,0,0,0,0,0,0,0,0,0,0,0,0,0,0,0,0,0,0,0,0,0,0,0,0,0,0,2.992,2.9921,0,2.9972,2.9973,2.9973,2.9943,2.9941,2.994,2.9938,2.9989,2.9992,2.9994,0,0,0,0,0,0,0,0,0,0,0,0,0,2.9792,2.9795,2.992,2.9921,2.9921,2.9972,2.9973,2.9973,2.9943,2.9941,2.9939,2.9938,2.9988,2.9991,2.9995,0,0,0,0,0,0,0,0,0,0,0,0,0,2.9846,2.9796,2.992,2.9912,2.9912,2.9972,2.9973,2.9974,2.9943,2.9941,2.9939,2.9937,2.9987,2.9991,2.9995,3.0064,0,0,3.0007,3.0009,0,0,0,0,0,0,0,0,2.9843,2.9851,2.9913,2.9913,2.9913,2.9949,2.9946,3.0004,2.9944,2.9931,2.9938,2.9936,2.9977,2.9982,2.9996,3.0067,3.0069,3.0008,3.001,3.0012,3.0013,0,0,0,0,0,0,0,2.984,2.9849,2.994,2.9914,2.9914,2.9906,2.9911,2.9957,2.9966,2.9932,2.993,2.9937,2.9977,2.9993,2.9997,3.007,3.0008,3.0011,3.0014,3.0015,3.0201,3.0204,0,0,0,0,0,0,2.9837,2.9846,2.9939,2.9942,2.9872,2.991,2.9916,2.9939,2.9965,2.9967,2.9939,2.9935,2.9987,2.9993,2.9999,3.0083,3.0012,3.0016,3.0018,3.0199,3.0202,3.0205,0,0,0,0,0,0,2.9834,2.9845,2.9937,2.9893,2.9904,2.9914,2.9941,2.9941,2.9957,2.997,2.9971,2.9953,2.9985,2.9993,3.0049,3.0085,3.0018,3.0021,3.0196,3.02,3.0203,3.0252,0,0,0,0,0,0,2.9831,2.9845,2.9871,2.9894,2.9907,2.9986,2.9943,2.9944,2.9965,2.9961,2.9984,2.9986,2.9984,3.0043,3.0053,3.0089,3.0025,3.0193,3.0198,3.0202,3.0247,3.0257,3.0265,0,0,0,0,0,2.9826,2.9882,2.9873,2.9884,2.9941,2.9988,2.9996,2.9993,2.9968,2.9995,3.0003,2.9985,3.0079,3.0049,3.006,3.0098,3.019,3.0196,3.0202,3.0243,3.0255,3.0265,0,0,0,0,0,0,2.9861,2.9885,2.9875,2.994,2.9963,2.9983,3.0017,3.0005,3.0035,3.003,3.0024,3.003,3.0088,3.0098,3.0064,3.0167,3.0131,3.0139,3.0158,3.017,3.0179,3.0175,3.0028,0,0,0,0,0,2.9877,2.9915,2.9933,2.9988,3.0,3.0007,3.0027,3.0024,3.0047,3.0056,3.0068,3.009,3.0125,3.0148,3.018,3.0248,3.0253,3.028,3.0289,3.0296,3.0303,3.0341,3.0354,3.0223,3.0223,3.0223,0,0,2.9909,2.9927,2.995,2.9996,3.0013,3.0052,3.0015,3.0057,3.0086,3.0062,3.0116,3.0126,3.015,3.0213,3.0241,3.0223,3.0341,3.0303,3.0309,3.0312,3.0348,3.0361,3.0372,3.0227,3.0226,3.0225,0,0,2.9988,3.0005,3.0054,3.0072,3.0099,3.0103,3.0115,3.0138,3.0144,3.0199,3.0182,3.0216,3.0275,3.0294,3.0311,3.0399,3.0384,3.0409,3.0456,3.0494,3.0504,3.0513,3.0545,3.0557,3.0416,3.0416,3.0417,0,3.0024,3.0083,3.008,3.0124,3.0145,3.0127,3.0176,3.0194,3.023,3.0244,3.0224,3.03,3.0314,3.0382,3.0404,3.0418,3.0432,3.0407,3.0503,3.0512,3.052,3.0551,3.0563,3.0419,3.0419,3.0419,3.0419,0,3.0127,3.0168,3.0204,3.0241,3.0266,3.0312,3.0317,3.0342,3.0336,3.0343,3.0399,3.0416,3.0453,3.0468,3.0462,3.0536,3.0524,3.0503,3.0467,3.0536,3.0565,3.0577,3.0424,3.0423,3.0422,3.0421,0,0,3.0229,3.0265,3.0278,3.0296,3.0325,3.0356,3.0402,3.0439,3.0461,3.0487,3.0526,3.0577,3.0559,3.0579,3.0575,3.0608,3.0678,3.0583,3.0583,3.0601,3.0761,3.0777,3.079,3.0668,3.067,3.0672,3.0759,0,3.031,3.0392,3.0392,3.0467,3.0505,3.0489,3.0529,3.0551,3.0559,3.0592,3.06,3.0637,3.0609,3.0622,3.0653,3.0662,3.071,3.0656,3.0704,3.0706,3.0699,3.0805,3.0822,3.0903,3.077,3.0772,3.0773,0,3.0416,3.0447,3.0527,3.0552,3.0568,3.0605,3.0639,3.0671,3.0696,3.0699,3.0723,3.0714,3.0761,3.0723,3.0788,3.0751,3.0771,3.0779,3.0782,3.0787,3.0744,3.0814,3.0929,3.0942,3.0791,3.0789,3.0788,0,3.0484,3.0545,3.0602,3.0617,3.0647,3.0673,3.0687,3.071,3.0733,3.0763,3.0778,3.0812,3.0831,3.0858,3.0859,3.0831,3.0925,3.0887,3.0929,3.0929,3.095,3.0949,3.1071,3.0961,3.0961,3.0961,3.0961,0,3.0576,3.0625,3.0633,3.0668,3.0723,3.0722,3.0777,3.0788,3.0809,3.0845,3.0832,3.0866,3.0865,3.09,3.0901,3.0956,3.0964,3.0968,3.0968,3.097,3.0969,3.0983,3.0977,3.0964,3.0963,3.0963,3.0962,0,3.0661,3.0668,3.0728,3.0753,3.076,3.08,3.0821,3.0854,3.0861,3.0907,3.0918,3.0928,3.0969,3.0973,3.1019,3.102,3.1086,3.1079,3.1078,3.1077,3.112,3.1116,3.1255,3.1274,3.1151,3.1153,3.1154,0,3.0719,3.0758,3.0787,3.0811,3.0827,3.0866,3.0889,3.089,3.0915,3.0947,3.0977,3.1016,3.1048,3.1113,3.1125,3.116,3.1155,3.1201,3.116,3.1161,3.1157,3.1155,3.1159,3.1209,3.1211,3.1212,3.1213,0,3.0823,3.0825,3.086,3.0898,3.0927,3.0955,3.0982,3.1003,3.1006,3.1035,3.1077,3.1102,3.1151,3.119,3.1226,3.1239,3.1227,3.1226,3.1238,3.124,3.1239,3.1241,3.1101,3.1223,3.1222,3.1221,3.122,3.122,3.0898,3.0931,3.0958,3.0998,3.1019,3.1045,3.1078,3.1089,3.1125,3.1165,3.1163,3.121,3.1234,3.1281,3.1297,3.1334,3.1318,3.1335,3.1339,3.1344,3.1349,3.1233,3.134,3.134,3.1339,3.1339,3.1339,0,3.1001,3.1018,3.1055,3.1094,3.1126,3.1113,3.1142,3.117,3.1211,3.1236,3.1268,3.1317,3.1356,3.1371,3.1409,3.1435,3.143,3.1445,3.1443,3.1447,3.136,3.1347,3.1448,3.1448,3.1448,3.1448,3.1448,3.1448,3.1059,3.1117,3.1122,3.119,3.1205,3.1252,3.127,3.1294,3.1314,3.137,3.1403,3.1413,3.1434,3.1473,3.1508,3.1512,3.1527,3.1544,3.1545,3.1464,3.1453,3.1442,3.143,3.1547,3.1547,3.1629,3.163,3.163]}]]